| time (UTC) | temp C | wind direction | speed KPH | gust KPH | rain 1hr cm | rain 24hr cm | rain mn cm | humidity % | barometer mb |
| 20260510022301 | 7 | 72 | 1.6 | 3.2 | 0.00 | 2.26 | 2.26 | 99 | 1011.1 |
| 20260510021800 | 7 | 56 | 1.6 | 1.6 | 0.00 | 2.26 | 2.26 | 99 | 1011.0 |
| 20260510021258 | 7 | 81 | 1.6 | 1.6 | 0.00 | 2.26 | 2.26 | 99 | 1011.0 |
| 20260510020754 | 7 | 93 | 0.0 | 0.0 | 0.00 | 2.26 | 2.26 | 99 | 1011.0 |
| 20260510020254 | 7 | 66 | 3.2 | 3.2 | 0.00 | 2.26 | 2.26 | 99 | 1011.1 |
| 20260510015750 | 7 | 87 | 0.0 | 0.0 | 0.00 | 2.26 | 2.26 | 99 | 1011.1 |
| 20260510015247 | 7 | 84 | 0.0 | 1.6 | 0.00 | 2.26 | 2.26 | 99 | 1011.0 |
| 20260510014741 | 7 | 81 | 0.0 | 1.6 | 0.00 | 2.26 | 2.26 | 99 | 1011.1 |
| 20260510014239 | 7 | 79 | 0.0 | 1.6 | 0.00 | 2.26 | 2.26 | 99 | 1010.6 |
| 20260510013735 | 7 | 70 | 1.6 | 3.2 | 0.00 | 2.26 | 2.26 | 99 | 1010.7 |
| 20260510013230 | 7 | 93 | 0.0 | 0.0 | 0.00 | 2.26 | 2.26 | 99 | 1010.8 |
| 20260510012725 | 8 | 93 | 0.0 | 0.0 | 0.00 | 2.26 | 2.26 | 99 | 1010.7 |
| 20260510012221 | 8 | 87 | 0.0 | 0.0 | 0.00 | 2.26 | 2.26 | 99 | 1011.1 |
| 20260510011720 | 8 | 89 | 0.0 | 0.0 | 0.00 | 2.26 | 2.26 | 99 | 1010.8 |
| 20260510011216 | 8 | 91 | 0.0 | 0.0 | 0.00 | 2.26 | 2.26 | 99 | 1010.5 |
| 20260510010713 | 8 | 91 | 0.0 | 0.0 | 0.00 | 2.26 | 2.26 | 99 | 1010.7 |
| 20260510010210 | 9 | 91 | 0.0 | 0.0 | 0.00 | 2.26 | 2.26 | 99 | 1010.6 |
| 20260510005706 | 9 | 83 | 1.6 | 1.6 | 0.00 | 2.26 | 2.26 | 99 | 1010.8 |
| 20260510005203 | 9 | 87 | 0.0 | 0.0 | 0.00 | 2.26 | 2.26 | 99 | 1010.4 |
| 20260510004702 | 10 | 82 | 0.0 | 1.6 | 0.00 | 2.26 | 2.26 | 98 | 1010.3 |
| 20260510004159 | 10 | 94 | 1.6 | 3.2 | 0.00 | 2.26 | 2.26 | 99 | 1010.3 |
| 20260510003656 | 10 | 98 | 0.0 | 0.0 | 0.00 | 2.26 | 2.26 | 99 | 1010.0 |
| 20260510003152 | 10 | 94 | 1.6 | 1.6 | 0.00 | 2.26 | 2.26 | 99 | 1009.9 |
| 20260510002651 | 10 | 104 | 1.6 | 1.6 | 0.00 | 2.26 | 2.26 | 98 | 1010.2 |
| 20260510002149 | 10 | 108 | 1.6 | 3.2 | 0.00 | 2.26 | 2.26 | 98 | 1010.3 |
| 20260510001646 | 10 | 97 | 0.0 | 0.0 | 0.00 | 2.26 | 2.26 | 98 | 1010.1 |
| 20260510001145 | 10 | 100 | 0.0 | 1.6 | 0.00 | 2.26 | 2.26 | 98 | 1010.5 |
| 20260510000644 | 11 | 95 | 0.0 | 1.6 | 0.00 | 2.26 | 2.26 | 98 | 1010.1 |
| 20260510000143 | 11 | 93 | 1.6 | 1.6 | 0.00 | 2.26 | 2.26 | 97 | 1009.9 |
| 20260509235639 | 11 | 92 | 1.6 | 1.6 | 0.00 | 2.26 | 2.26 | 97 | 1010.0 |
| 20260509235135 | 11 | 95 | 1.6 | 3.2 | 0.00 | 2.26 | 2.26 | 97 | 1009.8 |
| 20260509234631 | 11 | 106 | 4.8 | 4.8 | 0.00 | 2.26 | 2.26 | 97 | 1009.7 |
| 20260509234129 | 11 | 95 | 0.0 | 0.0 | 0.00 | 2.26 | 2.26 | 96 | 1009.8 |
| 20260509233626 | 12 | 109 | 1.6 | 1.6 | 0.00 | 2.26 | 2.26 | 96 | 1009.4 |
| 20260509233124 | 12 | 121 | 3.2 | 3.2 | 0.00 | 2.26 | 2.26 | 96 | 1009.7 |
| 20260509232620 | 12 | 97 | 1.6 | 1.6 | 0.00 | 2.26 | 2.26 | 96 | 1009.3 |
| 20260509232117 | 12 | 108 | 1.6 | 3.2 | 0.00 | 2.26 | 2.26 | 95 | 1009.5 |
| 20260509231613 | 12 | 122 | 1.6 | 3.2 | 0.00 | 2.26 | 2.26 | 95 | 1009.5 |
| 20260509231111 | 12 | 104 | 3.2 | 3.2 | 0.00 | 2.26 | 2.26 | 95 | 1009.5 |
| 20260509230608 | 12 | 111 | 3.2 | 3.2 | 0.00 | 2.26 | 2.26 | 96 | 1009.5 |
| 20260509230105 | 12 | 95 | 0.0 | 0.0 | 0.00 | 2.26 | 2.26 | 96 | 1010.0 |
| 20260509225601 | 11 | 142 | 4.8 | 4.8 | 0.00 | 2.26 | 2.26 | 96 | 1009.7 |
| 20260509225056 | 11 | 101 | 1.6 | 1.6 | 0.00 | 2.26 | 2.26 | 96 | 1009.8 |
| 20260509224552 | 11 | 108 | 0.0 | 1.6 | 0.00 | 2.26 | 2.26 | 96 | 1009.8 |
| 20260509224049 | 11 | 94 | 0.0 | 1.6 | 0.00 | 2.26 | 2.26 | 97 | 1009.5 |
| 20260509223546 | 12 | 132 | 1.6 | 1.6 | 0.00 | 2.26 | 2.26 | 97 | 1009.6 |
| 20260509223044 | 12 | 150 | 1.6 | 3.2 | 0.00 | 2.26 | 2.26 | 97 | 1009.6 |
| 20260509222539 | 12 | 142 | 4.8 | 4.8 | 0.00 | 2.26 | 2.26 | 97 | 1009.4 |
| 20260509222036 | 12 | 117 | 0.0 | 1.6 | 0.00 | 2.26 | 2.26 | 98 | 1009.4 |
| 20260509221531 | 11 | 171 | 3.2 | 3.2 | 0.00 | 2.26 | 2.26 | 98 | 1009.5 |
| 20260509221027 | 11 | 119 | 1.6 | 3.2 | 0.00 | 2.26 | 2.26 | 98 | 1009.7 |
| 20260509220523 | 11 | 118 | 3.2 | 3.2 | 0.00 | 2.26 | 2.26 | 98 | 1009.5 |
| 20260509220020 | 11 | 198 | 3.2 | 3.2 | 0.00 | 2.26 | 2.26 | 98 | 1009.6 |
| 20260509215515 | 11 | 110 | 4.8 | 4.8 | 0.00 | 2.26 | 2.26 | 99 | 1009.8 |
| 20260509215012 | 11 | 184 | 4.8 | 4.8 | 0.00 | 2.26 | 2.26 | 99 | 1009.8 |
| 20260509214510 | 11 | 138 | 4.8 | 4.8 | 0.00 | 2.26 | 2.26 | 99 | 1009.8 |
| 20260509214007 | 11 | 159 | 3.2 | 3.2 | 0.00 | 2.26 | 2.26 | 99 | 1010.0 |
| 20260509213502 | 11 | 143 | 4.8 | 4.8 | 0.00 | 2.26 | 2.26 | 99 | 1010.1 |
| 20260509212959 | 10 | 118 | 1.6 | 3.2 | 0.00 | 2.26 | 2.26 | 99 | 1010.2 |
| 20260509212457 | 10 | 107 | 4.8 | 4.8 | 0.00 | 2.26 | 2.26 | 99 | 1010.1 |
| 20260509211953 | 10 | 94 | 4.8 | 8.0 | 0.00 | 2.26 | 2.26 | 99 | 1010.2 |
| 20260509211449 | 10 | 128 | 3.2 | 4.8 | 0.00 | 2.26 | 2.26 | 99 | 1010.2 |
| 20260509210946 | 10 | 127 | 4.8 | 8.0 | 0.00 | 2.26 | 2.26 | 99 | 1010.4 |
| 20260509210443 | 10 | 173 | 4.8 | 8.0 | 0.00 | 2.26 | 2.26 | 99 | 1010.4 |
| 20260509205938 | 10 | 196 | 3.2 | 4.8 | 0.00 | 2.26 | 2.26 | 99 | 1010.3 |
| 20260509205433 | 10 | 114 | 4.8 | 4.8 | 0.00 | 2.26 | 2.26 | 99 | 1010.1 |
| 20260509204929 | 10 | 113 | 6.4 | 9.7 | 0.00 | 2.26 | 2.26 | 99 | 1010.1 |
| 20260509204425 | 11 | 143 | 3.2 | 4.8 | 0.18 | 2.26 | 2.26 | 99 | 1010.4 |
| 20260509203923 | 11 | 191 | 8.0 | 9.7 | 0.18 | 2.26 | 2.26 | 99 | 1010.3 |
| 20260509203418 | 10 | 104 | 3.2 | 3.2 | 0.00 | 2.24 | 2.24 | 99 | 1010.2 |
| 20260509202916 | 10 | 113 | 11.3 | 14.5 | 0.00 | 2.24 | 2.24 | 99 | 1010.5 |
| 20260509202411 | 11 | 196 | 4.8 | 8.0 | 0.00 | 2.24 | 2.24 | 99 | 1010.5 |
| 20260509201907 | 10 | 135 | 6.4 | 8.0 | 0.00 | 2.24 | 2.24 | 99 | 1010.5 |
| 20260509201402 | 10 | 92 | 4.8 | 4.8 | 0.00 | 2.24 | 2.24 | 99 | 1010.4 |
| 20260509200900 | 10 | 211 | 6.4 | 9.7 | 0.13 | 2.24 | 2.24 | 99 | 1010.5 |
| 20260509200359 | 10 | 115 | 4.8 | 4.8 | 0.13 | 2.24 | 2.24 | 99 | 1010.5 |
| 20260509195857 | 10 | 147 | 6.4 | 8.0 | 0.00 | 2.21 | 2.21 | 99 | 1010.6 |
| 20260509195356 | 10 | 126 | 6.4 | 9.7 | 0.00 | 2.21 | 2.21 | 99 | 1010.6 |
| 20260509194856 | 10 | 108 | 6.4 | 8.0 | 0.18 | 2.21 | 2.21 | 99 | 1010.7 |
| 20260509194353 | 10 | 124 | 4.8 | 4.8 | 0.30 | 2.21 | 2.21 | 99 | 1011.0 |
| 20260509193849 | 10 | 181 | 6.4 | 9.7 | 0.13 | 2.18 | 2.18 | 99 | 1010.8 |
| 20260509193344 | 10 | 154 | 3.2 | 3.2 | 0.00 | 2.16 | 2.16 | 99 | 1010.8 |
| 20260509192840 | 10 | 131 | 11.3 | 14.5 | 0.30 | 2.16 | 2.16 | 99 | 1011.1 |
| 20260509192336 | 10 | 141 | 11.3 | 12.9 | 0.13 | 2.13 | 2.13 | 99 | 1011.0 |
| 20260509191832 | 10 | 199 | 12.9 | 16.1 | 0.00 | 2.11 | 2.11 | 99 | 1010.8 |
| 20260509191328 | 10 | 147 | 8.0 | 9.7 | 0.00 | 2.11 | 2.11 | 99 | 1011.0 |
| 20260509190824 | 10 | 142 | 8.0 | 11.3 | 0.00 | 2.11 | 2.11 | 99 | 1011.0 |
| 20260509190321 | 10 | 118 | 8.0 | 9.7 | 0.00 | 2.11 | 2.11 | 99 | 1010.8 |
| 20260509185819 | 10 | 132 | 6.4 | 11.3 | 0.00 | 2.11 | 2.11 | 99 | 1010.8 |
| 20260509185314 | 10 | 184 | 11.3 | 12.9 | 0.18 | 2.11 | 2.11 | 99 | 1011.2 |
| 20260509184812 | 10 | 142 | 8.0 | 11.3 | 0.18 | 2.11 | 2.11 | 99 | 1011.2 |
| 20260509184310 | 10 | 153 | 9.7 | 11.3 | 0.13 | 2.08 | 2.08 | 99 | 1011.0 |
| 20260509183806 | 10 | 112 | 4.8 | 4.8 | 0.13 | 2.08 | 2.08 | 99 | 1011.3 |
| 20260509183301 | 10 | 219 | 4.8 | 9.7 | 0.00 | 2.06 | 2.06 | 99 | 1011.0 |
| 20260509182756 | 10 | 162 | 8.0 | 9.7 | 0.18 | 2.06 | 2.06 | 99 | 1011.1 |
| 20260509182254 | 10 | 151 | 6.4 | 8.0 | 0.18 | 2.06 | 2.06 | 99 | 1011.1 |
| 20260509181751 | 10 | 139 | 9.7 | 12.9 | 0.13 | 2.03 | 2.03 | 99 | 1010.7 |
| 20260509181249 | 10 | 123 | 11.3 | 14.5 | 0.30 | 2.03 | 2.03 | 99 | 1011.1 |
| 20260509180746 | 10 | 139 | 12.9 | 16.1 | 0.36 | 2.01 | 2.01 | 99 | 1011.1 |
| 20260509180242 | 10 | 124 | 9.7 | 11.3 | 0.30 | 1.98 | 1.98 | 99 | 1011.1 |
| 20260509175738 | 10 | 183 | 9.7 | 14.5 | 0.30 | 1.96 | 1.96 | 99 | 1011.0 |
| 20260509175235 | 10 | 108 | 3.2 | 3.2 | 0.30 | 1.93 | 1.93 | 99 | 1010.8 |
| 20260509174731 | 10 | 128 | 4.8 | 4.8 | 0.18 | 1.88 | 1.88 | 99 | 1010.8 |
| 20260509174226 | 10 | 145 | 8.0 | 11.3 | 0.30 | 1.88 | 1.88 | 99 | 1010.8 |
| 20260509173723 | 10 | 136 | 4.8 | 4.8 | 0.30 | 1.85 | 1.85 | 99 | 1010.8 |
| 20260509173219 | 10 | 109 | 8.0 | 9.7 | 0.18 | 1.83 | 1.83 | 99 | 1011.2 |
| 20260509172715 | 10 | 105 | 4.8 | 4.8 | 0.13 | 1.80 | 1.80 | 99 | 1011.0 |
| 20260509172211 | 10 | 179 | 1.6 | 3.2 | 0.30 | 1.80 | 1.80 | 99 | 1011.2 |
| 20260509171707 | 10 | 155 | 6.4 | 9.7 | 0.18 | 1.78 | 1.78 | 99 | 1010.8 |
| 20260509171203 | 10 | 154 | 4.8 | 8.0 | 0.13 | 1.75 | 1.75 | 99 | 1011.0 |
| 20260509170700 | 10 | 127 | 6.4 | 8.0 | 0.30 | 1.75 | 1.75 | 99 | 1010.8 |
| 20260509170156 | 10 | 96 | 1.6 | 1.6 | 0.30 | 1.73 | 1.73 | 99 | 1011.0 |
| 20260509165655 | 10 | 176 | 8.0 | 9.7 | 0.30 | 1.70 | 1.70 | 99 | 1011.0 |
| 20260509165150 | 10 | 105 | 3.2 | 3.2 | 0.36 | 1.68 | 1.68 | 99 | 1011.3 |
| 20260509164647 | 10 | 126 | 3.2 | 4.8 | 0.18 | 1.65 | 1.65 | 99 | 1011.4 |
| 20260509164142 | 10 | 129 | 4.8 | 4.8 | 0.00 | 1.63 | 1.63 | 99 | 1011.4 |
| 20260509163640 | 10 | 128 | 6.4 | 8.0 | 0.13 | 1.63 | 1.63 | 99 | 1011.3 |
| 20260509163136 | 10 | 151 | 3.2 | 3.2 | 0.00 | 1.60 | 1.60 | 99 | 1011.2 |
| 20260509162633 | 10 | 174 | 8.0 | 11.3 | 0.00 | 1.60 | 1.60 | 99 | 1011.2 |
| 20260509162129 | 10 | 116 | 1.6 | 1.6 | 0.00 | 1.60 | 1.60 | 99 | 1011.3 |
| 20260509161625 | 10 | 183 | 3.2 | 3.2 | 0.18 | 1.60 | 1.60 | 99 | 1011.4 |
| 20260509161120 | 10 | 197 | 8.0 | 9.7 | 0.18 | 1.60 | 1.60 | 99 | 1011.3 |
| 20260509160617 | 10 | 137 | 6.4 | 8.0 | 0.00 | 1.57 | 1.57 | 99 | 1011.4 |
| 20260509160112 | 10 | 139 | 1.6 | 3.2 | 0.13 | 1.57 | 1.57 | 99 | 1011.2 |
| 20260509155609 | 10 | 139 | 4.8 | 4.8 | 0.13 | 1.57 | 1.57 | 99 | 1011.2 |
| 20260509155105 | 10 | 143 | 6.4 | 8.0 | 0.18 | 1.55 | 1.55 | 99 | 1011.5 |
| 20260509154600 | 10 | 121 | 3.2 | 3.2 | 0.18 | 1.55 | 1.55 | 99 | 1011.6 |
| 20260509154058 | 10 | 153 | 4.8 | 9.7 | 0.13 | 1.52 | 1.52 | 99 | 1011.6 |
| 20260509153555 | 10 | 193 | 4.8 | 4.8 | 0.13 | 1.52 | 1.52 | 99 | 1011.8 |
| 20260509153052 | 10 | 112 | 0.0 | 1.6 | 0.18 | 1.50 | 1.50 | 99 | 1012.0 |
| 20260509152548 | 10 | 123 | 1.6 | 1.6 | 0.18 | 1.50 | 1.50 | 99 | 1011.9 |
| 20260509152045 | 10 | 142 | 1.6 | 1.6 | 0.13 | 1.47 | 1.47 | 99 | 1012.0 |
| 20260509151541 | 10 | 138 | 3.2 | 3.2 | 0.30 | 1.47 | 1.47 | 99 | 1012.2 |
| 20260509151039 | 10 | 107 | 0.0 | 1.6 | 0.18 | 1.45 | 1.45 | 99 | 1012.1 |
| 20260509150537 | 10 | 100 | 0.0 | 0.0 | 0.13 | 1.42 | 1.42 | 99 | 1012.1 |
| 20260509150035 | 9 | 101 | 0.0 | 1.6 | 0.30 | 1.42 | 1.42 | 99 | 1012.1 |
| 20260509145530 | 9 | 161 | 3.2 | 3.2 | 0.48 | 1.40 | 1.40 | 99 | 1012.2 |
| 20260509145025 | 9 | 137 | 1.6 | 3.2 | 0.30 | 1.37 | 1.37 | 99 | 1012.2 |
| 20260509144523 | 9 | 109 | 0.0 | 1.6 | 0.18 | 1.32 | 1.32 | 99 | 1012.3 |
| 20260509144020 | 10 | 111 | 0.0 | 1.6 | 0.48 | 1.32 | 1.32 | 99 | 1012.3 |
| 20260509143517 | 9 | 102 | 0.0 | 0.0 | 0.18 | 1.27 | 1.27 | 99 | 1012.4 |
| 20260509143015 | 9 | 116 | 1.6 | 3.2 | 0.13 | 1.24 | 1.24 | 99 | 1012.5 |
| 20260509142510 | 9 | 122 | 1.6 | 1.6 | 0.30 | 1.24 | 1.24 | 99 | 1012.3 |
| 20260509142005 | 9 | 121 | 3.2 | 3.2 | 0.30 | 1.22 | 1.22 | 99 | 1012.6 |
| 20260509141502 | 9 | 102 | 0.0 | 1.6 | 0.30 | 1.19 | 1.19 | 99 | 1012.3 |
| 20260509140959 | 9 | 183 | 4.8 | 4.8 | 0.30 | 1.17 | 1.17 | 99 | 1012.2 |
| 20260509140455 | 9 | 140 | 1.6 | 3.2 | 0.30 | 1.14 | 1.14 | 99 | 1012.4 |
| 20260509135954 | 9 | 124 | 1.6 | 3.2 | 0.30 | 1.12 | 1.12 | 99 | 1012.3 |
| 20260509135451 | 10 | 109 | 0.0 | 0.0 | 0.13 | 1.09 | 1.09 | 99 | 1012.1 |
| 20260509134948 | 9 | 104 | 0.0 | 0.0 | 0.18 | 1.07 | 1.07 | 99 | 1012.0 |
| 20260509134445 | 9 | 102 | 0.0 | 0.0 | 0.18 | 1.07 | 1.07 | 99 | 1012.0 |
| 20260509133943 | 9 | 122 | 1.6 | 1.6 | 0.00 | 1.04 | 1.04 | 99 | 1011.9 |
| 20260509133439 | 9 | 140 | 1.6 | 1.6 | 0.18 | 1.04 | 1.04 | 99 | 1012.0 |
| 20260509132937 | 9 | 119 | 1.6 | 1.6 | 0.18 | 1.04 | 1.04 | 99 | 1011.8 |
| 20260509132435 | 9 | 120 | 1.6 | 1.6 | 0.13 | 1.02 | 1.02 | 99 | 1011.8 |
| 20260509131932 | 9 | 131 | 1.6 | 3.2 | 0.13 | 1.02 | 1.02 | 99 | 1011.9 |
| 20260509131429 | 9 | 99 | 0.0 | 0.0 | 0.00 | 0.99 | 0.99 | 99 | 1011.8 |
| 20260509130926 | 8 | 99 | 0.0 | 0.0 | 0.18 | 0.99 | 0.99 | 99 | 1012.1 |
| 20260509130421 | 9 | 99 | 0.0 | 0.0 | 0.18 | 0.99 | 0.99 | 99 | 1012.1 |
| 20260509125918 | 8 | 107 | 0.0 | 0.0 | 0.00 | 0.97 | 0.97 | 99 | 1012.3 |
| 20260509125415 | 8 | 97 | 0.0 | 1.6 | 0.13 | 0.97 | 0.97 | 99 | 1012.0 |
| 20260509124911 | 8 | 92 | 0.0 | 0.0 | 0.13 | 0.97 | 0.97 | 99 | 1012.2 |
| 20260509124408 | 8 | 93 | 0.0 | 0.0 | 0.00 | 0.94 | 0.94 | 99 | 1012.1 |
| 20260509123906 | 8 | 77 | 1.6 | 1.6 | 0.18 | 0.94 | 0.94 | 99 | 1012.2 |
| 20260509123403 | 8 | 79 | 0.0 | 0.0 | 0.18 | 0.94 | 0.94 | 99 | 1012.2 |
| 20260509122858 | 8 | 56 | 1.6 | 1.6 | 0.00 | 0.91 | 0.91 | 99 | 1012.0 |
| 20260509122355 | 8 | 79 | 1.6 | 1.6 | 0.13 | 0.91 | 0.91 | 99 | 1012.2 |
| 20260509121852 | 8 | 89 | 0.0 | 0.0 | 0.13 | 0.91 | 0.91 | 99 | 1012.1 |
| 20260509121349 | 8 | 90 | 0.0 | 0.0 | 0.00 | 0.89 | 0.89 | 99 | 1012.2 |
| 20260509120848 | 8 | 90 | 0.0 | 0.0 | 0.00 | 0.89 | 0.89 | 99 | 1012.1 |
| 20260509120345 | 8 | 91 | 0.0 | 0.0 | 0.00 | 0.89 | 0.89 | 99 | 1012.1 |
| 20260509115843 | 8 | 93 | 0.0 | 0.0 | 0.00 | 0.89 | 0.89 | 99 | 1012.2 |
| 20260509115340 | 8 | 97 | 0.0 | 0.0 | 0.00 | 0.89 | 0.89 | 99 | 1012.3 |
| 20260509114838 | 8 | 97 | 0.0 | 0.0 | 0.00 | 0.89 | 0.89 | 99 | 1012.3 |
| 20260509114336 | 8 | 98 | 0.0 | 0.0 | 0.00 | 0.89 | 0.89 | 99 | 1012.4 |
| 20260509113835 | 8 | 101 | 0.0 | 0.0 | 0.00 | 0.89 | 0.89 | 99 | 1012.3 |
| 20260509113331 | 8 | 102 | 0.0 | 0.0 | 0.00 | 0.89 | 0.89 | 99 | 1012.2 |
| 20260509112828 | 8 | 112 | 1.6 | 3.2 | 0.18 | 0.89 | 0.89 | 99 | 1012.4 |
| 20260509112325 | 8 | 93 | 0.0 | 0.0 | 0.18 | 0.89 | 0.89 | 99 | 1012.3 |
| 20260509111822 | 8 | 86 | 0.0 | 0.0 | 0.00 | 0.86 | 0.86 | 99 | 1012.5 |
| 20260509111319 | 7 | 83 | 0.0 | 0.0 | 0.00 | 0.86 | 0.86 | 99 | 1012.5 |
| 20260509110817 | 7 | 83 | 0.0 | 0.0 | 0.00 | 0.86 | 0.86 | 99 | 1012.6 |
| 20260509110313 | 7 | 76 | 0.0 | 0.0 | 0.00 | 0.86 | 0.86 | 99 | 1012.5 |
| 20260509105811 | 7 | 84 | 0.0 | 0.0 | 0.00 | 0.86 | 0.86 | 99 | 1012.4 |
| 20260509105309 | 7 | 98 | 0.0 | 0.0 | 0.00 | 0.86 | 0.86 | 99 | 1012.5 |
| 20260509104805 | 7 | 85 | 0.0 | 0.0 | 0.13 | 0.86 | 0.86 | 99 | 1012.4 |
| 20260509104302 | 7 | 80 | 0.0 | 0.0 | 0.00 | 0.84 | 0.84 | 99 | 1012.7 |
| 20260509103800 | 7 | 78 | 0.0 | 0.0 | 0.18 | 0.84 | 0.84 | 99 | 1012.6 |
| 20260509103257 | 7 | 78 | 0.0 | 0.0 | 0.18 | 0.84 | 0.84 | 99 | 1012.5 |
| 20260509102756 | 7 | 88 | 0.0 | 0.0 | 0.00 | 0.81 | 0.81 | 99 | 1012.3 |
| 20260509102253 | 7 | 95 | 0.0 | 0.0 | 0.00 | 0.81 | 0.81 | 99 | 1012.4 |
| 20260509101749 | 7 | 99 | 0.0 | 0.0 | 0.00 | 0.81 | 0.81 | 99 | 1012.3 |
| 20260509101245 | 7 | 102 | 1.6 | 1.6 | 0.13 | 0.81 | 0.81 | 99 | 1012.3 |
| 20260509100743 | 7 | 98 | 0.0 | 0.0 | 0.13 | 0.81 | 0.81 | 99 | 1012.4 |
| 20260509100240 | 7 | 103 | 0.0 | 1.6 | 0.18 | 0.79 | 0.79 | 99 | 1012.6 |
| 20260509095736 | 7 | 94 | 0.0 | 1.6 | 0.18 | 0.79 | 0.79 | 99 | 1012.8 |
| 20260509095234 | 7 | 88 | 1.6 | 1.6 | 0.13 | 0.76 | 0.76 | 99 | 1012.7 |
| 20260509094731 | 7 | 95 | 0.0 | 1.6 | 0.36 | 0.74 | 0.74 | 99 | 1012.6 |
| 20260509094227 | 7 | 91 | 0.0 | 1.6 | 0.36 | 0.74 | 0.74 | 99 | 1012.5 |
| 20260509093725 | 7 | 89 | 0.0 | 0.0 | 0.13 | 0.69 | 0.69 | 99 | 1012.3 |
| 20260509093222 | 7 | 95 | 1.6 | 3.2 | 0.43 | 0.69 | 0.69 | 99 | 1012.3 |
| 20260509092721 | 7 | 98 | 1.6 | 1.6 | 0.48 | 0.66 | 0.66 | 99 | 1012.4 |
| 20260509092218 | 7 | 116 | 3.2 | 3.2 | 0.30 | 0.61 | 0.61 | 99 | 1012.6 |
| 20260509091716 | 7 | 129 | 1.6 | 1.6 | 0.30 | 0.58 | 0.58 | 99 | 1012.5 |
| 20260509091212 | 7 | 105 | 1.6 | 1.6 | 0.30 | 0.56 | 0.56 | 99 | 1012.3 |
| 20260509090710 | 7 | 110 | 1.6 | 3.2 | 0.30 | 0.53 | 0.53 | 99 | 1012.4 |
| 20260509090207 | 7 | 96 | 1.6 | 1.6 | 0.18 | 0.51 | 0.51 | 99 | 1012.4 |
| 20260509085705 | 7 | 131 | 1.6 | 3.2 | 0.00 | 0.48 | 0.48 | 99 | 1012.7 |
| 20260509085201 | 7 | 144 | 4.8 | 4.8 | 0.00 | 0.48 | 0.48 | 99 | 1012.7 |
| 20260509084658 | 7 | 95 | 0.0 | 0.0 | 0.00 | 0.48 | 0.48 | 99 | 1012.5 |
| 20260509084154 | 7 | 96 | 0.0 | 0.0 | 0.00 | 0.48 | 0.48 | 99 | 1012.3 |
| 20260509083653 | 7 | 99 | 0.0 | 0.0 | 0.13 | 0.48 | 0.48 | 99 | 1012.5 |
| 20260509083148 | 7 | 106 | 0.0 | 0.0 | 0.13 | 0.48 | 0.48 | 99 | 1012.5 |
| 20260509082646 | 7 | 100 | 0.0 | 0.0 | 0.00 | 0.46 | 0.46 | 99 | 1012.6 |
| 20260509082142 | 7 | 100 | 0.0 | 0.0 | 0.00 | 0.46 | 0.46 | 99 | 1012.8 |
| 20260509081639 | 7 | 101 | 0.0 | 0.0 | 0.18 | 0.46 | 0.46 | 99 | 1012.8 |
| 20260509081137 | 7 | 90 | 0.0 | 1.6 | 0.13 | 0.43 | 0.43 | 99 | 1012.9 |
| 20260509080635 | 7 | 93 | 1.6 | 1.6 | 0.13 | 0.43 | 0.43 | 99 | 1012.8 |
| 20260509080132 | 7 | 91 | 4.8 | 8.0 | 0.18 | 0.41 | 0.41 | 99 | 1013.3 |
| 20260509075630 | 7 | 91 | 1.6 | 1.6 | 0.18 | 0.41 | 0.41 | 99 | 1013.0 |
| 20260509075128 | 7 | 102 | 0.0 | 0.0 | 0.18 | 0.38 | 0.38 | 99 | 1013.1 |
| 20260509074624 | 7 | 102 | 0.0 | 0.0 | 0.18 | 0.38 | 0.38 | 99 | 1012.9 |
| 20260509074121 | 7 | 105 | 3.2 | 3.2 | 0.00 | 0.36 | 0.36 | 99 | 1013.1 |
| 20260509073618 | 7 | 100 | 0.0 | 0.0 | 0.13 | 0.36 | 0.36 | 99 | 1013.1 |
| 20260509073114 | 7 | 106 | 1.6 | 3.2 | 0.30 | 0.36 | 0.36 | 99 | 1013.1 |
| 20260509072611 | 7 | 99 | 3.2 | 4.8 | 0.18 | 0.33 | 0.33 | 99 | 1013.0 |
| 20260509072108 | 7 | 98 | 0.0 | 0.0 | 0.13 | 0.30 | 0.30 | 99 | 1013.4 |
| 20260509071604 | 7 | 97 | 0.0 | 0.0 | 0.18 | 0.28 | 0.28 | 99 | 1013.3 |
| 20260509071102 | 7 | 91 | 1.6 | 1.6 | 0.30 | 0.28 | 0.28 | 99 | 1013.2 |
| 20260509070559 | 7 | 93 | 3.2 | 3.2 | 0.13 | 0.25 | 0.25 | 99 | 1013.4 |
| 20260509070055 | 7 | 95 | 0.0 | 1.6 | 0.18 | 0.23 | 0.23 | 99 | 1013.4 |
| 20260509065550 | 7 | 102 | 0.0 | 1.6 | 0.30 | 0.23 | 0.23 | 99 | 1013.0 |
| 20260509065047 | 7 | 97 | 3.2 | 3.2 | 0.13 | 0.20 | 0.20 | 99 | 1013.0 |
| 20260509064544 | 7 | 99 | 1.6 | 1.6 | 0.18 | 0.18 | 0.18 | 99 | 1013.1 |
| 20260509064043 | 7 | 95 | 0.0 | 1.6 | 0.30 | 0.18 | 0.18 | 99 | 1013.3 |
| 20260509063537 | 6 | 96 | 0.0 | 1.6 | 0.13 | 0.15 | 0.15 | 99 | 1013.2 |
| 20260509063035 | 6 | 105 | 1.6 | 1.6 | 0.18 | 0.13 | 0.13 | 99 | 1013.4 |
| 20260509062532 | 6 | 121 | 3.2 | 3.2 | 0.18 | 0.13 | 0.13 | 99 | 1013.4 |
| 20260509062030 | 6 | 125 | 3.2 | 3.2 | 0.13 | 0.10 | 0.10 | 99 | 1013.3 |
| 20260509061526 | 6 | 85 | 0.0 | 0.0 | 0.13 | 0.10 | 0.10 | 99 | 1013.2 |
| 20260509061024 | 6 | 80 | 0.0 | 0.0 | 0.18 | 0.08 | 0.08 | 99 | 1012.9 |
| 20260509060521 | 6 | 80 | 0.0 | 0.0 | 0.18 | 0.08 | 0.08 | 99 | 1012.9 |
| 20260509060017 | 6 | 80 | 1.6 | 1.6 | 0.00 | 0.05 | 0.05 | 98 | 1013.2 |
| 20260509055512 | 6 | 86 | 1.6 | 1.6 | 0.00 | 0.05 | 0.05 | 98 | 1013.2 |
| 20260509055009 | 6 | 86 | 0.0 | 0.0 | 0.18 | 0.05 | 0.05 | 98 | 1013.1 |
| 20260509054505 | 6 | 82 | 0.0 | 0.0 | 0.18 | 0.05 | 0.05 | 98 | 1013.4 |
| 20260509054004 | 6 | 82 | 0.0 | 0.0 | 0.13 | 0.03 | 0.03 | 98 | 1013.3 |
| 20260509053502 | 6 | 77 | 1.6 | 1.6 | 0.13 | 0.03 | 0.03 | 98 | 1013.4 |
| 20260509052958 | 6 | 91 | 0.0 | 1.6 | 0.00 | 0.00 | 0.00 | 97 | 1013.4 |
| 20260509052456 | 6 | 92 | 0.0 | 0.0 | 0.00 | 0.00 | 0.00 | 97 | 1013.4 |
| 20260509051954 | 6 | 83 | 0.0 | 1.6 | 0.00 | 0.00 | 0.00 | 97 | 1013.6 |
| 20260509051451 | 6 | 64 | 0.0 | 0.0 | 0.00 | 0.00 | 0.00 | 97 | 1013.5 |
| 20260509050948 | 6 | 60 | 1.6 | 3.2 | 0.00 | 0.00 | 0.00 | 97 | 1013.5 |
| 20260509050445 | 6 | 62 | 3.2 | 4.8 | 0.00 | 0.00 | 0.00 | 97 | 1013.7 |
| 20260509045941 | 6 | 63 | 3.2 | 8.0 | 0.00 | 0.00 | 0.00 | 97 | 1013.3 |
| 20260509045439 | 6 | 60 | 1.6 | 1.6 | 0.00 | 0.00 | 0.00 | 97 | 1013.4 |
| 20260509044935 | 6 | 59 | 1.6 | 1.6 | 0.00 | 0.00 | 0.00 | 97 | 1013.4 |
| 20260509044434 | 6 | 48 | 4.8 | 4.8 | 0.00 | 0.00 | 0.00 | 97 | 1013.4 |
| 20260509043931 | 6 | 73 | 0.0 | 0.0 | 0.00 | 0.00 | 0.00 | 97 | 1013.4 |
| 20260509043426 | 6 | 73 | 0.0 | 0.0 | 0.00 | 0.00 | 0.00 | 97 | 1013.5 |
| 20260509042922 | 6 | 73 | 0.0 | 0.0 | 0.00 | 0.00 | 0.00 | 97 | 1013.6 |
| 20260509042419 | 6 | 73 | 0.0 | 0.0 | 0.00 | 0.00 | 0.00 | 97 | 1014.1 |
| 20260509041915 | 6 | 73 | 0.0 | 0.0 | 0.00 | 0.00 | 0.00 | 97 | 1013.7 |
| 20260509041412 | 5 | 73 | 1.6 | 1.6 | 0.00 | 0.00 | 0.00 | 97 | 1013.9 |
| 20260509040910 | 5 | 73 | 0.0 | 0.0 | 0.00 | 0.00 | 0.00 | 96 | 1013.9 |
| 20260509040408 | 5 | 73 | 0.0 | 0.0 | 0.00 | 0.00 | 0.00 | 96 | 1013.6 |
| 20260509035905 | 6 | 73 | 0.0 | 0.0 | 0.00 | 0.10 | 0.10 | 96 | 1013.7 |
| 20260509035402 | 6 | 73 | 0.0 | 1.6 | 0.00 | 0.10 | 0.10 | 96 | 1013.5 |
| 20260509034858 | 6 | 73 | 0.0 | 1.6 | 0.00 | 0.10 | 0.10 | 96 | 1013.6 |
| 20260509034355 | 5 | 73 | 0.0 | 0.0 | 0.00 | 0.10 | 0.10 | 96 | 1013.7 |
| 20260509033852 | 5 | 73 | 0.0 | 0.0 | 0.00 | 0.10 | 0.10 | 96 | 1013.7 |
| 20260509033350 | 5 | 73 | 0.0 | 0.0 | 0.00 | 0.10 | 0.10 | 96 | 1013.5 |
| 20260509032846 | 5 | 73 | 0.0 | 0.0 | 0.00 | 0.10 | 0.10 | 96 | 1013.5 |
| 20260509032343 | 6 | 73 | 0.0 | 0.0 | 0.00 | 0.10 | 0.10 | 96 | 1013.4 |
| 20260509031842 | 5 | 73 | 0.0 | 3.2 | 0.00 | 0.10 | 0.10 | 96 | 1013.7 |
| 20260509031338 | 5 | 73 | 0.0 | 0.0 | 0.00 | 0.10 | 0.10 | 96 | 1013.5 |
| 20260509030836 | 5 | 73 | 0.0 | 1.6 | 0.00 | 0.10 | 0.10 | 96 | 1013.9 |
| 20260509030334 | 5 | 73 | 0.0 | 0.0 | 0.00 | 0.10 | 0.10 | 96 | 1013.7 |
| 20260509025831 | 5 | 73 | 0.0 | 0.0 | 0.00 | 0.10 | 0.10 | 96 | 1013.5 |
| 20260509025326 | 5 | 73 | 1.6 | 1.6 | 0.00 | 0.10 | 0.10 | 95 | 1013.9 |
| 20260509024821 | 5 | 73 | 0.0 | 0.0 | 0.00 | 0.10 | 0.10 | 95 | 1013.7 |
| 20260509024318 | 6 | 73 | 0.0 | 0.0 | 0.00 | 0.10 | 0.10 | 95 | 1013.4 |
| 20260509023815 | 6 | 73 | 0.0 | 0.0 | 0.00 | 0.10 | 0.10 | 95 | 1013.6 |
| 20260509023312 | 6 | 73 | 1.6 | 1.6 | 0.00 | 0.10 | 0.10 | 94 | 1013.4 |
| 20260509022809 | 6 | 73 | 3.2 | 3.2 | 0.00 | 0.10 | 0.10 | 94 | 1013.4 |